Tracking 19854 objects as of 23-Sep-2019
HD Live streaming from Space Station
objects crossing your sky now

CZ-4B DEB

Track CZ-4B DEB now!
10-day predictions


NORAD ID: 29536
Int'l Code: 2006-015C
Perigee: 606.3 km
Apogee: 836.5 km
Inclination: 97.8 °
Period: 99.1 minutes
Semi major axis: 7092 km
RCS: 0.0177 m2 (small)
Launch date: April 26, 2006
Source: People's Republic of China (PRC)
Launch site: Taiyaun Space Center, China (TSC)

Note: This is SATELLITE DEBRIS
aabbcc
Your satellite tracking list
Your tracking list is empty




NASA's NSSDC Master Catalog

Two Line Element Set (TLE):
1 29536U 06015C   19266.10610568  .00000446  00000-0  99805-4 0  9997
2 29536  97.8143 322.8301 0162299 208.3711 150.8578 14.53482968704442
Source of the keplerian elements: AFSPC